Location: Neuvy Saint Sepulchre
(46.5953°N, 1.8122°E)
Time: 10:59:45
(UTC+02:00)

ISS - Pass Details

Date: 27 April 2026
Orbit: 415 x 424 km, 51.6° (Epoch: 14 April)

Event Time Altitude Azimuth Distance (km) Brightness Sun altitude
Exits shadow 03:12:30 11° 79° (E) 1,437 -0.7 -26.9°
Drops below altitude 10° 03:12:40 10° 78° (ENE) 1,498 -0.6 -26.9°
Sets 03:14:54 0° 68° (ENE) 2,367 0.7 -26.7°
